Regional Weather Roundup
Issued by NWS Mobile, AL

Home | Current Version | Previous Version | Text Only | Print | Product List | Glossary On
Versions: 1 2 3 4 5 6 7 8 9 10 11 12 13 14 15 16 17 18 19 20 21 22 23 24 25 26 27
000
ASUS44 KMOB 210813
RWRMOB
REGIONAL WEATHER ROUNDUP
NATIONAL WEATHER SERVICE MOBILE AL
300 AM CDT MON AUG 21 2017

NOTE: "FAIR" INDICATES FEW OR NO CLOUDS BELOW 12,000 FEET WITH NO
      SIGNIFICANT WEATHER AND/OR OBSTRUCTIONS TO VISIBILITY.

  * THESE STATIONS ARE PART OF THE UNIVERSITY OF SOUTH ALABAMA
    MESONET AND ARE NOT UNDER NWS OR FAA QUALITY CONTROL.

ALZ061>064-210900-
COASTAL ALABAMA

CITY           SKY/WX    TMP DP  RH WIND       PRES   REMARKS
MOBILE REG APT CLOUDY    77  75  93 CALM      30.08S FOG
BROOKLEY FIELD PTCLDY    80  79  96 CALM      30.08S
USA CAMPUS*      N/A     73  72  94 CALM      30.07S
DOG RIVER*     NOT AVBL


CITY           SKY/WX    TMP DP  RH WIND       PRES   REMARKS
GULF SHORES    CLEAR     76  76 100 CALM      30.06R

$$

ALZ051>060-210900-
INTERIOR SOUTHWEST AND SOUTH CENTRAL ALABAMA

CITY           SKY/WX    TMP DP  RH WIND       PRES   REMARKS
GREENVILLE     CLEAR     73  69  87 CALM      30.09S
EVERGREEN      CLEAR     74  72  93 CALM      30.08F FOG
ATMORE*        NOT AVBL
ANDALUSIA/OPP  CLEAR     77  73  87 CALM      30.08R
ANDALUSIA*       N/A     75  73  94 E2        30.08S
FLORALA APT      N/A    N/A N/A N/A MISG      30.10R
FLORALA*         N/A     75  73  94 CALM      30.80R

$$

FLZ001>006-210900-
WESTERN FLORIDA PANHANDLE

CITY           SKY/WX    TMP DP  RH WIND       PRES   REMARKS
PENSACOLA      PTCLDY    82  75  79 CALM      30.05F
NAS PENSACOLA  CLEAR     78  76  93 CALM      30.05S
MILTON         NOT AVBL
WHTNG S FIELD  CLEAR     80  76  87 CALM      30.07R


CITY           SKY/WX    TMP DP  RH WIND       PRES   REMARKS
JAY*             N/A     77  75  94 CALM      30.08R
DUKE FIELD     PTCLDY    75  72  92 CALM      30.07S
CRESTVIEW      CLEAR     75  72  90 CALM      30.09R
VALPARAISO     PTCLDY    80  75  83 CALM      30.06S
DESTIN         CLOUDY    84  75  74 CALM      30.07R

$$

MSZ076-079-210900-
INTERIOR SOUTHEAST MISSISSIPPI

CITY           SKY/WX    TMP DP  RH WIND       PRES   REMARKS
LEAKESVILLE*     N/A     73  73 100 CALM      30.09S
AGRICOLA*        N/A     75  75 100 CALM      30.07S

$$

MARINE OBSERVATIONS

STATION/POSITION TIME  TEMP    WIND        PRES    WAVE
                       AIR SEA DIR/SP/G            HT/PER
                 (UTC) (F)     (DEG/KT/KT) (MB)    (FT/S)
PASCAGOULA       0748   81     360/  3/  4 1017.7F
PETIT BOIS ISLND 0748   85     150/  4/  6 1018.5F
GRAND BAY        0630   87     150/  4     1019.0S
KATRINA CUT      0730   86     150/  5     1018.0R
CEDAR POINT      0730   86     160/  3     1018.0S
E DAUPHIN ISLAND 0700   86     140/  4/  5 1017.4F
MIDDLE BAY LIGHT 0730   86     180/  4     1017.6S
USCG MOBILE BAY  0748   81 85   CALM  /  2 1018.6F
STATE DOCKS      0736   82 87              1017.8F
MEAHER PARK      0730   81      10/  2     1018.0F
WEEKS BAY        0645   77                   N/A
FORT MORGAN      0748   85     160/  4/  4   N/A
12 S ORANGE BCH  0750   86 88  150/  4/  6 1017.4F   0
PENSACOLA BAY    0736   86 89              1017.9F
64 S DAUPHIN ISL 0800   86 88  130/ 10/ 12 1017.6
67 S FORT MORGAN 0730   84     140/ 10     1017.3F

$$

SELECTED LOCATIONS ACROSS THE REGION

CITY           SKY/WX    TMP DP  RH WIND       PRES   REMARKS
NEW ORLEANS    PTCLDY    79  77  94 CALM      30.06S
GULFPORT       PTCLDY    79  77  94 N3        30.05F
PASCAGOULA AP  MOCLDY    76  74  93 CALM      30.06F FOG
PASCAGOULA*      N/A    N/A N/A N/A CALM        N/A
HATTIESBURG    CLEAR     76  76 100 CALM      30.08F
LAUREL         CLEAR     74  73  97 CALM      30.10S FOG
MERIDIAN       CLEAR     78  77  96 CALM      30.09F
JACKSON        CLEAR     77  76  96 CALM      30.09S
MONTGOMERY     CLEAR     78  72  81 CALM      30.10R
TROY           CLEAR     74  74 100 N3        30.10S
ASHFORD*         N/A     75  73  94 E2        30.08S
DOTHAN         PTCLDY    77  76  96 S3        30.12F
PANAMA CITY    CLEAR     77  74  90 CALM      30.06F

$$





USA.gov is the U.S. government's official web portal to all federal, state and local government web resources and services.